Tracking 18852 objects as of 23-Nov-2017
HD Live streaming from Space Station
objects crossing your sky now

NIMBUS 2 DEB

Track NIMBUS 2 DEB now!
10-day predictions


NORAD ID: 28610
Int'l Code: 1966-040Z
Perigee: 1,046.2 km
Apogee: 1,112.2 km
Inclination: 100.5 °
Period: 106.7 minutes
Semi major axis: 7450 km
RCS: 0.0177 m2 (small)
Launch date: May 15, 1966
Source: United States (US)
Launch site: AIR FORCE WESTERN TEST RANGE (AFWTR)

Note: This is SATELLITE DEBRIS
aabbcc
Your satellite tracking list
Your tracking list is empty




NASA's NSSDC Master Catalog

Two Line Element Set (TLE):
1 28610U 66040Z   17314.85510687  .00000501  00000-0  85928-3 0  9990
2 28610 100.5068 167.6933 0044329 212.4722 215.4578 13.50055627656324
Source of the keplerian elements: AFSPC